Regional Weather Roundup
Issued by NWS

Home | Current Version | Previous Version | Graphics & Text | Print | Product List | Glossary On
Versions: 1 2 3 4 5 6 7 8 9 10 11 12 13 14 15 16 17 18 19 20 21 22 23 24 25 26 27 28 29 30 31 32 33 34 35 36 37 38 39 40 41 42 43 44 45 46 47 48 49 50
000
ASUS43 KFSD 251610
RWRSD

WEATHER ROUNDUP FOR SOUTH DAKOTA
NATIONAL WEATHER SERVICE SIOUX FALLS SD
1000 AM CST SUN FEB 25 2018

NOTE: "FAIR" INDICATES FEW OR NO CLOUDS BELOW 12,000 FEET WITH NO
SIGNIFICANT WEATHER AND/OR OBSTRUCTIONS TO VISIBILITY.


SDZ001>005-009-010-012>017-251700-
NORTHWEST AND NORTH CENTRAL SOUTH DAKOTA

CITY           SKY/WX    TMP DP  RH WIND       PRES   REMARKS
BUFFALO          N/A     15   9  76 SW15      29.64R WCI   0
FAITH            N/A     19  13  77 W13       29.74R WCI   6
MOBRIDGE       SUNNY     20  12  71 SW8       29.71R WCI  10
$$

SDZ012>016-024>037-041>051-057-063-072>074-251700-
SOUTHWEST AND SOUTH CENTRAL SOUTH DAKOTA

CITY           SKY/WX    TMP DP  RH WIND       PRES   REMARKS
RAPID CTY ARPT SUNNY     26  12  55 W13       29.76S WCI  15
PIERRE         SUNNY     22  13  68 W14       29.80R WCI   9
CUSTER         SUNNY     22   5  48 NW10G18   29.69S WCI  11
ELLSWORTH AFB  SUNNY     20  10  65 NW14      29.75R WCI   7
PHILIP         SUNNY     17   8  67 W13       29.81S WCI   4
PINE RIDGE     SUNNY    N/A N/A N/A MISG      29.83R
SPEARFISH        N/A     27  10  50 W15       29.74S WCI  15
WINNER         FAIR      24  11  57 SW8       29.85R WCI  15
$$

SDZ004>011-016>023-039-040-251700-
NORTHEAST SOUTH DAKOTA

CITY           SKY/WX    TMP DP  RH WIND       PRES   REMARKS
ABERDEEN       SUNNY     20  14  77 W16       29.73R WCI   6
WATERTOWN      SUNNY     19  15  84 W18       29.70R WCI   4
BROOKINGS      CLOUDY    20  15  81 W13       29.76R WCI   7
SISSETON         N/A     25  19  78 W20       29.66R WCI  11
$$

SDZ017-020-022-023-036>040-048>070-251700-
SOUTHEAST SOUTH DAKOTA

CITY           SKY/WX    TMP DP  RH WIND       PRES   REMARKS
SIOUX FALLS    PTSUNNY   23  16  74 W13G21    29.83R WCI  11
HURON          SUNNY     22  16  78 W13       29.79S WCI  10
CHAMBERLAIN    SUNNY     23  13  65 W9        29.84R WCI  13
MITCHELL       SUNNY     23  13  65 W10       29.85R WCI  12
YANKTON        SUNNY     29  15  56 W16       29.88R WCI  17
$$

ABBREVIATIONS USED IN REMARKS
   TC - TEMPERATURE IN CELSIUS
  WCI - WIND CHILL INDEX
   HX - HEAT INDEX
  VSB - VISIBILITY




USA.gov is the U.S. government's official web portal to all federal, state and local government web resources and services.